Tracking 28790 objects as of 19-Apr-2024
HD Live streaming from Space Station
objects crossing your sky now

FENGYUN 1C DEB

Track FENGYUN 1C DEB now!
10-day predictions


NORAD ID: 33681
Int'l Code: 1999-025DFS
Perigee: 830.3 km
Apogee: 975.6 km
Inclination: 99.1 °
Period: 102.9 minutes
Semi major axis: 7273 km
RCS: 0.0042 m2 (small)
Launch date: May 10, 1999
Source: People's Republic of China (PRC)
Launch site: Taiyaun Space Center, China (TSC)

Note: This is SATELLITE DEBRIS
Your satellite tracking list
Your tracking list is empty




NASA's NSSDC Master Catalog

Two Line Element Set (TLE):
1 33681U 99025DFS 24093.40855045  .00001147  00000-0  78497-3 0  9996
2 33681  99.1265 146.7346 0099918 304.1695  68.3224 13.99422475568235
Source of the keplerian elements: AFSPC